ONEWEB-0096, 45439

Orbit data source: Space-Track

ONEWEB-0096, 45439 is a payload satellite owned by One Web (UK) in LEO that was launched on Sat, 21 Mar 2020 UTC via a SOYUZ-2-1B launch vehicle from the Tyuratam Missile And Space Complex (TTMTR). Payload-class satellites include a variety of spacecraft equipped with specific instruments for various scientific and technological missions. These include communications satellites like Starlink; space stations such as the ISS; scientific satellites like the Hubble; Earth observation satellites from companies like Planet Labs, Umbra, and HawkEye 360; GPS; miniature CubeSats for education and research; and military/defense satellites.

Loading next visibility...
Identifier
45439, 2020-020R
Orbit
LEO
Country
Flag of UKUK
Related business
Manufacturer
One Web
Mission
Operational Commercial Communications
Bus & Motor
ARROW, Unknown motor
Mass
148 kg wet, ~140 kg dry
Launch date (UTC)
2020-03-21 (6 years ago)
Launch vehicle
SOYUZ-2-1B
Launch site
Tyuratam Missile And Space Complex (TTMTR)
Object type
Payload
Rocket body
Debris
Shape & HBR
Trap Box + 2 Pan, 6.7 m
Radar Cross Section
3.464 m², Large (>1 m²)

Expand to show TLE details & history
Last TLE update: 15 hours ago

TLE from 15 hours ago
0 ONEWEB-0096
1 45439U 20020R   25286.84716553  .00000505  00000-0  13899-2 0  9993
2 45439  87.8825  70.1069 0001488  97.6653 262.4644 13.11417950270374
Epoch: 2025-10-13T20:19Z
TLE epoch observation values (Epoch: 2025-10-13T20:19:55.101Z)
Latitude
-0.00004°
Longitude
102.48324°
Altitude
1,220.716 km
Speed
7.244 km/s
True Right ascension
04h 40m 25s
True Declination
0° 00' 00"
Sunlit
Object was in full shadow at epoch
Visualization orbit readout
Latitude
Unknown
Longitude
Unknown
Altitude
Unknown
Speed
Unknown
Apparent Right ascension
Unknown
Apparent Declination
Unknown
Sunlit
N/A
Visualization observer readout
Local Sidereal Time
06:13:26
Azimuth
Unknown
Elevation
Unknown
Doppler factor
Unknown
Orbital elements
Apogee altitude
1,215.927 km
Perigee altitude
1,213.667 km
Semi-major axis
7,592.934 km
Eccentricity
0.00015
Inclination
87.8825°
RAAN
70.1069°
Arg. of periapsis
97.6653°
True anomaly
262.4475°
Mean anomaly
262.4644°
Eccentric anomaly
262.45595°
Mean motion
3.28041 °/min
Orbital period
109.74 mins
BSTAR
0.0013899
Loading maneuver chart data...
Computing Atmospheric mass density...
Loading historical data...
Loading historical data...
Loading historical data...
Loading historical data...
Loading historical data...
Loading historical data...
Loading historical data...

Documentation

Showing up to 5 results
|